EW9824 Weather Reports


Display with metric or nautical units.
time (UTC)temp
F
wind
direction
speed
MPH
gust
MPH
rain 1hr
in
rain 24hr
in
rain mn
in
humidity
%
barometer
mb
20260509220031 73 316 5.0 14.0 0.00 0.00 0.00 40 1021.2
20260509214528 73 311 5.0 11.0 0.00 0.00 0.00 43 1021.4
20260509213030 72 330 6.0 14.0 0.00 0.00 0.00 45 1021.6
20260509211530 71 307 5.0 10.0 0.00 0.00 0.00 47 1021.7
20260509210031 71 344 5.0 11.0 0.00 0.00 0.00 48 1021.9
20260509204604 71 324 5.0 10.0 0.00 0.00 0.00 48 1022.1
20260509203030 70 303 5.0 11.0 0.00 0.00 0.00 50 1022.2
20260509201602 69 347 4.0 10.0 0.00 0.00 0.00 51 1022.3
20260509200030 69 334 5.0 11.0 0.00 0.00 0.00 53 1022.6
20260509194604 68 7 5.0 10.0 0.00 0.00 0.00 54 1022.8
20260509193144 67 351 4.0 9.0 0.00 0.00 0.00 54 1023.0
20260509191529 66 353 4.0 10.0 0.00 0.00 0.00 55 1023.1
20260509190107 66 347 5.0 10.0 0.00 0.00 0.00 54 1023.3
20260509184530 65 330 4.0 8.0 0.00 0.00 0.00 55 1023.4
20260509183031 64 336 4.0 8.0 0.00 0.00 0.00 56 1023.5
20260509181531 63 343 5.0 9.0 0.00 0.00 0.00 57 1023.7
20260509174530 62 331 5.0 10.0 0.00 0.00 0.00 59 1023.6
20260509173103 61 309 5.0 10.0 0.00 0.00 0.00 59 1023.6
20260509171530 60 336 4.0 9.0 0.00 0.00 0.00 59 1023.8
20260509170032 60 348 5.0 10.0 0.00 0.00 0.00 61 1023.9
20260509164532 59 353 5.0 10.0 0.00 0.00 0.00 61 1024.0
20260509163033 58 314 3.0 7.0 0.00 0.00 0.00 59 1024.1
20260509161532 57 346 3.0 6.0 0.00 0.00 0.00 59 1024.1
20260509160029 56 8 2.0 5.0 0.00 0.00 0.00 60 1024.2
20260509154531 56 66 0.0 3.0 0.00 0.00 0.00 64 1024.4
20260509153030 53 79 1.0 3.0 0.00 0.00 0.00 70 1024.4
20260509151534 51 16 0.0 2.0 0.00 0.00 0.00 76 1024.3
20260509150031 49 118 0.0 3.0 0.00 0.00 0.00 80 1024.3
20260509143107 43 132 2.0 4.0 0.00 0.00 0.00 87 1024.2
20260509141532 41 127 3.0 5.0 0.00 0.00 0.00 86 1024.0
20260509140115 41 156 3.0 6.0 0.00 0.00 0.00 87 1023.8
20260509134533 40 155 3.0 7.0 0.00 0.00 0.00 89 1023.8
20260509133033 40 163 3.0 5.0 0.00 0.00 0.00 90 1023.8
20260509131531 39 144 4.0 7.0 0.00 0.00 0.00 91 1023.8
20260509130031 38 155 3.0 5.0 0.00 0.00 0.00 91 1023.5
20260509124531 39 158 2.0 4.0 0.00 0.00 0.00 91 1023.4
20260509123028 39 173 3.0 5.0 0.00 0.00 0.00 92 1023.3
20260509121532 39 145 3.0 4.0 0.00 0.00 0.00 92 1023.4
20260509113030 40 143 2.0 4.0 0.00 0.00 0.00 90 1023.4
20260509104531 42 119 1.0 4.0 0.00 0.00 0.00 85 1023.5
20260509103033 43 147 2.0 5.0 0.00 0.00 0.00 82 1023.6
20260509100033 45 166 3.0 8.0 0.00 0.00 0.00 82 1023.8
20260509094529 45 176 4.0 7.0 0.00 0.00 0.00 83 1023.8
20260509091532 45 160 3.0 7.0 0.00 0.00 0.00 83 1024.1
20260509090030 46 182 3.0 5.0 0.00 0.00 0.00 83 1024.2
20260509084531 46 176 3.0 7.0 0.00 0.00 0.00 83 1024.4
20260509083033 46 167 4.0 8.0 0.00 0.00 0.00 82 1024.6
20260509080030 47 173 3.0 6.0 0.00 0.00 0.00 80 1024.9
20260509074532 48 174 4.0 7.0 0.00 0.00 0.00 79 1025.1
20260509073031 48 150 5.0 9.0 0.00 0.00 0.00 79 1025.2
20260509070106 48 154 4.0 8.0 0.00 0.00 0.00 80 1025.2
20260509064532 49 175 2.0 6.0 0.00 0.00 0.00 78 1025.2
20260509063145 50 166 2.0 5.0 0.00 0.00 0.00 77 1025.4
20260509061539 50 167 3.0 4.0 0.00 0.00 0.00 75 1025.4
20260509054531 51 224 0.0 3.0 0.00 0.00 0.00 75 1025.4
20260509053046 50 106 1.0 7.0 0.00 0.00 0.00 74 1025.3
20260509051536 50 130 1.0 4.0 0.00 0.00 0.00 73 1025.2
20260509050030 51 125 1.0 5.0 0.00 0.00 0.00 70 1025.1
20260509044529 52 95 2.0 6.0 0.00 0.00 0.00 70 1025.0
20260509043106 52 288 1.0 8.0 0.00 0.00 0.00 69 1025.0
20260509041531 52 169 0.0 5.0 0.00 0.00 0.00 66 1024.8
20260509040029 54 336 0.0 2.0 0.00 0.00 0.00 63 1024.6
20260509034530 55 262 1.0 6.0 0.00 0.00 0.00 61 1024.4
20260509033032 56 235 2.0 9.0 0.00 0.00 0.00 60 1024.3
20260509031531 57 244 4.0 11.0 0.00 0.00 0.00 58 1024.1
20260509030032 58 248 3.0 9.0 0.00 0.00 0.00 55 1023.9
20260509024529 59 256 5.0 16.0 0.00 0.00 0.00 53 1023.9
20260509023032 60 257 6.0 14.0 0.00 0.00 0.00 50 1023.8
20260509021639 61 261 6.0 13.0 0.00 0.00 0.00 48 1023.7
20260509021626 62 264 7.0 17.0 0.00 0.00 0.00 46 1023.6
20260509013039 63 263 7.0 18.0 0.00 0.00 0.00 43 1023.5
20260509011540 63 253 9.0 18.0 0.00 0.00 0.00 41 1023.4
20260509004541 65 261 9.0 19.0 0.00 0.00 0.00 37 1023.3
20260509003038 66 265 10.0 19.0 0.00 0.00 0.00 35 1023.2
20260509001537 67 263 8.0 20.0 0.00 0.00 0.00 34 1023.0
20260509000041 68 260 8.0 23.0 0.00 0.00 0.00 33 1022.8
20260508234540 68 264 8.0 20.0 0.00 0.00 0.00 32 1022.8
20260508233030 68 266 8.0 24.0 0.00 0.00 0.00 31 1022.7
20260508231536 68 267 9.0 20.0 0.00 0.00 0.00 30 1022.7
20260508230029 69 264 8.0 19.0 0.00 0.00 0.00 29 1022.6
20260508224533 69 261 8.0 18.0 0.00 0.00 0.00 28 1022.5
20260508223029 70 271 8.0 19.0 0.00 0.00 0.00 27 1022.4
20260508221602 71 265 6.0 18.0 0.00 0.00 0.00 27 1022.4